MYNNMUSC

Guest
Details From MYNN - Nassau Intl
To MUSC - ABEL SANTAMARIA
Flight Number -
Tags generated
Created
Modified
Stats Distance 210 nm / 389 km
Max Altitude 20,900 ft / 6,370 m
Waypoints 3
Social Downloads 0
Likes 0
Share VATSIM

Download

Looking for another format? Having issues loading an existing format? Contact us
Advertisement - Login to hide

Notes

Basic altitude profile: - Ascent Rate: 2500ft/min - Ascent Speed: 250kts - Cruise Altitude: 35000ft - Cruise Speed: 420kts - Descent Rate: 1500ft/min - Descent Speed: 250kts Options: - Use NATs: yes - Use PACOTS: yes - Use low airways: yes - Use high airways: yes

Route

MYNN URSUS MUSC

ID Type Via Altitude Latitude Longitude Leg Dist Tot Dist Heading (true) Name
O MYNN APT - 0 ft / 0 m 25.03860˚ -77.46662˚ - 0 nm - Nassau Intl
URSUS FIX - 20,900 ft / 6,370 m 24.00005˚ -79.06980˚ 107 nm 107 nm 235° / 234° -
O MUSC APT - 0 ft / 0 m 22.49219˚ -79.94361˚ 102 nm 210 nm 208° / 208° ABEL SANTAMARIA

Altitude Profile

Advertisement - Login to hide

Weather


0- 5 10 15 20 25 30 35+ Temperature / ° C

Clouds and Precipitation
Forecast for 2018-05-22 00:00 UTC. Updated 2 hours ago

Ground ~20,000 ft ~40,000 ft Winds

MYNN

Details ICAO MYNN (NAS)
Name Nassau Intl
Region Bahamas
Timezone America/Nassau (UTC-4.0)
Stats Elevation 16 ft / 5 m (AMSL)
Location 25.038596° -77.466621°
Runways 2
Magnetic Variation 8.256° W

METAR

MYNN 220000Z 11011KT 9999 BKN018TCU BKN220 25/23 A3006 RMK TCU/SW-W/OVHD

Decode

TAF

Not found

Departure Runways

ID Width Length Bearing (true) Bearing (mag) Surface Threshold Offset Overrun Length
09 151 ft / 46 m 8,311 ft / 2,533 m 89.62° 97.88° Asphalt 0 ft / 0 m 0 ft / 0 m
14 151 ft / 46 m 11,364 ft / 3,464 m 134.83° 143.09° Asphalt 226 ft / 69 m 0 ft / 0 m
27 151 ft / 46 m 8,311 ft / 2,533 m 269.64° 277.90° Asphalt 0 ft / 0 m 0 ft / 0 m
32 151 ft / 46 m 11,364 ft / 3,464 m 314.84° 323.10° Asphalt 0 ft / 0 m 0 ft / 0 m

MUSC

Details ICAO MUSC (SNU)
Name ABEL SANTAMARIA
Region Cuba
Timezone America/Havana (UTC-4.0)
Stats Elevation 338 ft / 103 m (AMSL)
Location 22.492193° -79.943613°
Runways 1
Magnetic Variation 6.396° W

METAR

MUSC 220032Z 16006KT 130V200 5000 -RA BKN012 22/21 Q1016

Decode

TAF

TAF AMD MUSC 220000Z 2200/2224 VRB03KT 9000 SCT020 TEMPO 2200/2204 3000 SHRA BKN015 BECMG 2215/2217 12010KT TEMPO 2218/2224 5000 TSRA RA SCT018CB BKN040

Decode

Destination Runways

ID Width Length Bearing (true) Bearing (mag) Surface Threshold Offset Overrun Length
08 148 ft / 45 m 9,888 ft / 3,014 m 76.05° 82.45° Asphalt 0 ft / 0 m 0 ft / 0 m
26 148 ft / 45 m 9,888 ft / 3,014 m 256.06° 262.46° Asphalt 0 ft / 0 m 0 ft / 0 m